Weather History for KCLT - December, 2012

Change the Weather History Date:

Tuesday, December 11, 2012

  Actual Average Record
Temperature  
Mean Temperature 53 °F 43 °F  
Max Temperature 61 °F 54 °F 79 °F (2007)
Min Temperature 44 °F 33 °F 13 °F (1957)
Degree Days  
Heating Degree Days 12 22  
Month to date heating degree days 95 226  
Since 1 July heating degree days 781 862  
Cooling Degree Days 0 0  
Month to date cooling degree days 0 0  
Year to date cooling degree days 1790 1517  
Growing Degree Days 3 (Base 50)    
Moisture  
Dew Point 45 °F    
Average Humidity 75    
Maximum Humidity 100    
Minimum Humidity 50    
Precipitation  
Precipitation 0.00 in 0.11 in 1.69 in (1961)
Month to date precipitation 0.19 1.18  
Year to date precipitation 30.04 39.56  
Snow  
Snow 0.00 in 0.00 in 0.80 in (1915)
Month to date snowfall 0.0 0.0  
Since 1 July snowfall 0.0 0.1  
Snow Depth 0.00 in    
Sea Level Pressure  
Sea Level Pressure 29.92 in    
Wind  
Wind Speed 7 mph (NNW)    
Max Wind Speed 15 mph    
Max Gust Speed 21 mph    
Visibility 10 miles    
Events      
T = Trace of Precipitation, MM = Missing Value Source: NWS Daily Summary

Daily Weather History Graph

Daily Weather History Graph

Search for Another Location

Airport or City:

Trip Planner

Search our weather history database for the weather conditions in past years. The results will help you decide how hot, cold, wet, or windy it might be!

Date:

Astronomy

Dec. 11, 2012 Rise Set
Actual Time 7:22 AM EST 5:12 PM EST
Civil Twilight 6:54 AM EST 5:40 PM EST
Nautical Twilight 6:22 AM EST 6:11 PM EST
Astronomical Twilight 5:51 AM EST 6:42 PM EST
Moon 5:17 AM EST (12/11) 3:48 PM EST (12/11)
Length of Visible Light 10h 45m
Length of Day
9h 49m
Waning Crescent, 4% of the Moon is Illuminated
Dec 11
Waning Crescent
Dec 13
New
Dec 20
First Quarter
Dec 28
Full
Jan 4
Last Quarter

Hourly Weather History & Observations

Time (EST) Temp. Windchill Dew Point Humidity Pressure Visibility Wind Dir Wind Speed Gust Speed Precip Events Conditions
12:52 AM 61.0 °F - 57.9 °F 90% 29.74 in 10.0 mi SW 8.1 mph - N/A   Overcast
1:21 AM 60.8 °F - 57.2 °F 88% 29.75 in 10.0 mi SW 8.1 mph - N/A   Overcast
1:50 AM 60.8 °F - 57.2 °F 88% 29.75 in 10.0 mi SW 6.9 mph - N/A   Scattered Clouds
1:52 AM 60.1 °F - 57.0 °F 90% 29.74 in 10.0 mi SW 6.9 mph - N/A   Partly Cloudy
2:52 AM 59.0 °F - 55.9 °F 90% 29.75 in 10.0 mi SW 8.1 mph - N/A   Partly Cloudy
3:52 AM 55.9 °F - 55.0 °F 97% 29.77 in 10.0 mi SSW 4.6 mph - N/A   Clear
4:52 AM 57.0 °F - 55.9 °F 96% 29.79 in 8.0 mi SSW 4.6 mph - N/A   Overcast
5:52 AM 55.0 °F - 54.0 °F 96% 29.82 in 8.0 mi Calm Calm - N/A   Partly Cloudy
6:48 AM 53.6 °F - 51.8 °F 94% 29.86 in 7.0 mi SW 3.5 mph - N/A   Mostly Cloudy
6:52 AM 54.0 °F - 53.1 °F 97% 29.85 in 7.0 mi SW 3.5 mph - N/A   Mostly Cloudy
7:22 AM 53.6 °F - 53.6 °F 100% 29.87 in 10.0 mi WNW 4.6 mph - N/A   Mostly Cloudy
7:33 AM 53.6 °F - 51.8 °F 94% 29.88 in 10.0 mi NW 5.8 mph - N/A   Mostly Cloudy
7:52 AM 53.1 °F - 50.0 °F 89% 29.88 in 10.0 mi NW 6.9 mph - N/A   Mostly Cloudy
8:52 AM 54.0 °F - 46.0 °F 75% 29.91 in 10.0 mi NNW 6.9 mph - N/A   Mostly Cloudy
9:52 AM 55.0 °F - 43.0 °F 64% 29.95 in 10.0 mi NNW 9.2 mph - N/A   Mostly Cloudy
10:52 AM 55.9 °F - 42.1 °F 60% 29.96 in 10.0 mi NNW 9.2 mph - N/A   Mostly Cloudy
11:52 AM 57.0 °F - 43.0 °F 59% 29.95 in 10.0 mi Variable 5.8 mph - N/A   Mostly Cloudy
12:52 PM 57.9 °F - 42.1 °F 56% 29.94 in 10.0 mi NE 3.5 mph - N/A   Overcast
1:52 PM 57.2 °F - 39.2 °F 51% 29.96 in 10.0 mi NE 3.5 mph - N/A   Overcast
2:52 PM 57.0 °F - 39.9 °F 53% 29.97 in 10.0 mi NNE 9.2 mph - N/A   Overcast
3:52 PM 55.0 °F - 39.0 °F 55% 29.99 in 10.0 mi North 6.9 mph - N/A   Overcast
4:52 PM 54.0 °F - 37.0 °F 53% 30.01 in 10.0 mi NNE 6.9 mph - N/A   Overcast
5:52 PM 52.0 °F - 36.0 °F 54% 30.03 in 10.0 mi NNE 10.4 mph - N/A   Overcast
6:52 PM 51.1 °F - 34.0 °F 52% 30.06 in 10.0 mi NNE 6.9 mph - N/A   Overcast
7:52 PM 51.1 °F - 34.0 °F 52% 30.07 in 10.0 mi NNE 10.4 mph - N/A   Overcast
8:52 PM 48.0 °F - 33.1 °F 56% 30.10 in 10.0 mi NNE 11.5 mph 18.4 mph N/A   Overcast
9:52 PM 46.0 °F 40.2 °F 30.0 °F 54% 30.13 in 10.0 mi NNE 12.7 mph 20.7 mph N/A   Overcast
10:52 PM 45.0 °F 39.7 °F 28.9 °F 53% 30.14 in 10.0 mi NNE 10.4 mph - N/A   Overcast
11:52 PM 44.1 °F 40.1 °F 28.9 °F 55% 30.15 in 10.0 mi North 6.9 mph - N/A   Overcast